Weather History for Marshall, MN

Change the Weather History Date:

Monday, June 17, 2013

  Actual Average Record
Temperature  
Mean Temperature 69 °F -  
Max Temperature 78 °F 80 °F 100 °F (1959)
Min Temperature 60 °F 56 °F 44 °F (1974)
Cooling Degree Days 4    
Growing Degree Days 19 (Base 50)    
Moisture  
Dew Point 52 °F    
Average Humidity 50    
Maximum Humidity 72    
Minimum Humidity 34    
Precipitation  
Precipitation 0.00 in - - ()
Sea Level Pressure  
Sea Level Pressure 29.97 in    
Wind  
Wind Speed 12 mph (NW)    
Max Wind Speed 21 mph    
Max Gust Speed 28 mph    
Visibility 10 miles    
Events      
Averages and records for this station are not official NWS values.
T = Trace of Precipitation, MM = Missing Value Source: NWS Daily Summary

Daily Weather History Graph

Daily Weather History Graph

Search for Another Location

Airport:

Trip Planner

Search our weather history database for the weather conditions in past years. The results will help you decide how hot, cold, wet, or windy it might be!

Date:

Astronomy

Jun. 17, 2013 Rise Set
Actual Time 5:38 AM CDT 9:10 PM CDT
Civil Twilight 5:01 AM CDT 9:47 PM CDT
Nautical Twilight 4:12 AM CDT 10:35 PM CDT
Astronomical Twilight 3:09 AM CDT 11:39 PM CDT
Moon 2:38 PM CDT (6/17) 1:27 AM CDT (6/17)
Length of Visible Light 16h 45m
Length of Day
15h 32m
First Quarter, 60% of the Moon is Illuminated
Jun 17
First Quarter
Jun 23
Full
Jun 29
Last Quarter
Jul 8
New
Jul 15
First Quarter

Hourly Weather History & Observations

Time (CDT) Temp. Dew Point Humidity Pressure Visibility Wind Dir Wind Speed Gust Speed Precip Events Conditions
12:15 AM 69.8 °F 51.8 °F 53% 29.93 in 10.0 mi WSW 12.7 mph - N/A   Clear
12:35 AM 69.8 °F 51.8 °F 53% 29.93 in 10.0 mi West 13.8 mph - N/A   Clear
12:55 AM 69.8 °F 51.8 °F 53% 29.93 in 10.0 mi West 11.5 mph - N/A   Clear
1:15 AM 69.8 °F 53.6 °F 56% 29.93 in 10.0 mi West 12.7 mph - N/A   Clear
1:35 AM 66.2 °F 53.6 °F 64% 29.93 in 10.0 mi West 11.5 mph - N/A   Clear
1:55 AM 66.2 °F 53.6 °F 64% 29.93 in 10.0 mi West 11.5 mph - N/A   Clear
2:15 AM 66.2 °F 53.6 °F 64% 29.94 in 10.0 mi West 9.2 mph - N/A   Clear
2:35 AM 64.4 °F 53.6 °F 68% 29.94 in 10.0 mi West 9.2 mph - N/A   Clear
2:55 AM 64.4 °F 51.8 °F 64% 29.95 in 10.0 mi West 11.5 mph - N/A   Clear
3:15 AM 64.4 °F 53.6 °F 68% 29.95 in 10.0 mi WNW 10.4 mph - N/A   Clear
3:35 AM 64.4 °F 53.6 °F 68% 29.94 in 10.0 mi WNW 9.2 mph - N/A   Clear
3:55 AM 62.6 °F 51.8 °F 68% 29.94 in 10.0 mi WNW 11.5 mph - N/A   Clear
4:15 AM 62.6 °F 51.8 °F 68% 29.94 in 10.0 mi WNW 9.2 mph - N/A   Clear
4:35 AM 62.6 °F 51.8 °F 68% 29.94 in 10.0 mi West 8.1 mph - N/A   Clear
4:55 AM 62.6 °F 51.8 °F 68% 29.94 in 10.0 mi West 8.1 mph - N/A   Clear
5:15 AM 62.6 °F 51.8 °F 68% 29.94 in 10.0 mi WNW 6.9 mph - N/A   Clear
5:35 AM 60.8 °F 51.8 °F 72% 29.94 in 10.0 mi West 8.1 mph - N/A   Clear
5:55 AM 60.8 °F 51.8 °F 72% 29.94 in 10.0 mi WNW 8.1 mph - N/A   Clear
6:15 AM 62.6 °F 51.8 °F 68% 29.95 in 10.0 mi West 9.2 mph - N/A   Clear
6:35 AM 62.6 °F 51.8 °F 68% 29.95 in 10.0 mi West 8.1 mph - N/A   Clear
6:55 AM 64.4 °F 51.8 °F 64% 29.96 in 10.0 mi West 8.1 mph - N/A   Clear
7:15 AM 66.2 °F 51.8 °F 60% 29.97 in 10.0 mi WNW 9.2 mph - N/A   Clear
7:35 AM 68.0 °F 51.8 °F 56% 29.97 in 10.0 mi NW 10.4 mph - N/A   Clear
7:55 AM 69.8 °F 51.8 °F 53% 29.98 in 10.0 mi NNW 9.2 mph - N/A   Clear
8:15 AM 71.6 °F 51.8 °F 50% 29.98 in 10.0 mi NW 11.5 mph - N/A   Clear
8:35 AM 71.6 °F 51.8 °F 50% 29.98 in 10.0 mi NW 12.7 mph - N/A   Clear
8:55 AM 73.4 °F 51.8 °F 47% 29.98 in 10.0 mi NNW 13.8 mph - N/A   Clear
9:15 AM 73.4 °F 51.8 °F 47% 29.98 in 10.0 mi NNW 12.7 mph - N/A   Clear
9:35 AM 73.4 °F 51.8 °F 47% 29.98 in 10.0 mi NW 10.4 mph - N/A   Clear
9:55 AM 75.2 °F 51.8 °F 44% 29.97 in 10.0 mi NNW 12.7 mph 18.4 mph N/A   Clear
10:15 AM 75.2 °F 51.8 °F 44% 29.97 in 10.0 mi NNW 16.1 mph - N/A   Clear
10:35 AM 75.2 °F 51.8 °F 44% 29.98 in 10.0 mi NNW 13.8 mph 20.7 mph N/A   Clear
10:55 AM 75.2 °F 51.8 °F 44% 29.98 in 10.0 mi NW 16.1 mph 23.0 mph N/A   Clear
11:15 AM 75.2 °F 50.0 °F 41% 29.98 in 10.0 mi NW 18.4 mph 25.3 mph N/A   Clear
11:35 AM 75.2 °F 50.0 °F 41% 29.99 in 10.0 mi NW 16.1 mph 24.2 mph N/A   Clear
11:55 AM 77.0 °F 51.8 °F 41% 30.00 in 10.0 mi WNW 13.8 mph 20.7 mph N/A   Clear
12:15 PM 77.0 °F 51.8 °F 41% 29.99 in 10.0 mi NW 16.1 mph 21.9 mph N/A   Scattered Clouds
12:35 PM 78.8 °F 50.0 °F 36% 29.99 in 10.0 mi NW 15.0 mph 24.2 mph N/A   Scattered Clouds
12:55 PM 78.8 °F 50.0 °F 36% 29.99 in 10.0 mi WNW 17.3 mph 23.0 mph N/A   Partly Cloudy
1:15 PM 78.8 °F 48.2 °F 34% 29.99 in 10.0 mi WNW 18.4 mph 26.5 mph N/A   Partly Cloudy
1:35 PM 78.8 °F 48.2 °F 34% 29.99 in 10.0 mi WNW 18.4 mph 26.5 mph N/A   Clear
1:55 PM 78.8 °F 48.2 °F 34% 29.99 in 10.0 mi WNW 17.3 mph 25.3 mph N/A   Clear
2:15 PM 78.8 °F 51.8 °F 39% 29.99 in 10.0 mi WNW 20.7 mph 26.5 mph N/A   Scattered Clouds
2:35 PM 77.0 °F 51.8 °F 41% 29.98 in 10.0 mi NW 13.8 mph - N/A   Mostly Cloudy
2:55 PM 78.8 °F 51.8 °F 39% 29.98 in 10.0 mi NW 13.8 mph 23.0 mph N/A   Mostly Cloudy
3:15 PM 77.0 °F 51.8 °F 41% 29.99 in 10.0 mi NNW 10.4 mph 23.0 mph N/A   Scattered Clouds
3:35 PM 78.8 °F 51.8 °F 39% 29.98 in 10.0 mi NW 18.4 mph 27.6 mph N/A   Scattered Clouds
3:55 PM 78.8 °F 51.8 °F 39% 29.97 in 10.0 mi NW 18.4 mph 23.0 mph N/A   Clear
4:15 PM 78.8 °F 53.6 °F 42% 29.97 in 10.0 mi NW 13.8 mph 19.6 mph N/A   Clear
4:35 PM 78.8 °F 53.6 °F 42% 29.97 in 10.0 mi NW 11.5 mph 20.7 mph N/A   Clear
4:55 PM 78.8 °F 53.6 °F 42% 29.96 in 10.0 mi NW 17.3 mph 23.0 mph N/A   Partly Cloudy
5:15 PM 78.8 °F 51.8 °F 39% 29.96 in 10.0 mi North 13.8 mph - N/A   Partly Cloudy
5:35 PM 78.8 °F 51.8 °F 39% 29.96 in 10.0 mi NW 15.0 mph 20.7 mph N/A   Clear
5:55 PM 78.8 °F 51.8 °F 39% 29.96 in 10.0 mi NNW 13.8 mph 21.9 mph N/A   Partly Cloudy
6:15 PM 78.8 °F 51.8 °F 39% 29.95 in 10.0 mi NNW 13.8 mph - N/A   Partly Cloudy
6:35 PM 78.8 °F 51.8 °F 39% 29.95 in 5.0 mi NW 16.1 mph - N/A   Partly Cloudy
6:55 PM 78.8 °F 51.8 °F 39% 29.95 in 10.0 mi North 16.1 mph - N/A   Scattered Clouds
7:15 PM 78.8 °F 51.8 °F 39% 29.96 in 10.0 mi NW 18.4 mph 21.9 mph N/A   Scattered Clouds
7:35 PM 78.8 °F 50.0 °F 36% 29.96 in 10.0 mi NNW 12.7 mph 18.4 mph N/A   Clear
7:55 PM 77.0 °F 50.0 °F 39% 29.96 in 10.0 mi NNW 15.0 mph - N/A   Clear
8:15 PM 77.0 °F 50.0 °F 39% 29.96 in 10.0 mi North 10.4 mph - N/A   Clear
8:35 PM 75.2 °F 50.0 °F 41% 29.96 in 10.0 mi NNW 10.4 mph - N/A   Partly Cloudy
8:55 PM 75.2 °F 51.8 °F 44% 29.96 in 10.0 mi NNW 9.2 mph - N/A   Clear
9:15 PM 73.4 °F 51.8 °F 47% 29.97 in 10.0 mi NNW 9.2 mph - N/A   Clear
9:35 PM 71.6 °F 51.8 °F 50% 29.98 in 10.0 mi NW 6.9 mph - N/A   Clear
9:55 PM 69.8 °F 51.8 °F 53% 29.99 in 10.0 mi WNW 5.8 mph - N/A   Clear
10:15 PM 69.8 °F 51.8 °F 53% 30.00 in 10.0 mi West 4.6 mph - N/A   Scattered Clouds
10:35 PM 66.2 °F 51.8 °F 60% 30.00 in 10.0 mi West 6.9 mph - N/A   Partly Cloudy
10:55 PM 66.2 °F 51.8 °F 60% 30.00 in 10.0 mi WNW 6.9 mph - N/A   Clear
11:15 PM 66.2 °F 51.8 °F 60% 30.00 in 10.0 mi WNW 5.8 mph - N/A   Clear
11:35 PM 64.4 °F 51.8 °F 64% 30.00 in 10.0 mi WNW 5.8 mph - N/A   Clear
11:55 PM 64.4 °F 51.8 °F 64% 30.00 in 10.0 mi West 5.8 mph - N/A   Clear